Regional Weather Roundup
Issued by NWS

Home | Current Version | Previous Version | Graphics & Text | Print | Product List | Glossary On
Versions: 1 2 3 4 5 6 7 8 9 10 11 12 13 14 15 16 17 18 19 20 21 22 23 24 25 26 27 28 29 30 31 32 33 34 35 36 37 38 39 40 41 42 43 44 45 46 47 48 49 50
000
ASUS43 KBIS 200310
RWRND

NORTH DAKOTA REGIONAL WEATHER ROUNDUP
NATIONAL WEATHER SERVICE BISMARCK ND
900 PM CST SUN NOV 19 2017

NOTE: "FAIR" INDICATES FEW OR NO CLOUDS BELOW 12,000 FEET WITH NO
SIGNIFICANT WEATHER AND/OR OBSTRUCTIONS TO VISIBILITY.


NDZ001>003-009>011-017-200400-
NORTHWEST NORTH DAKOTA

CITY           SKY/WX    TMP DP  RH WIND       PRES   REMARKS
WILLISTON      CLOUDY    27  19  72 S6        29.58F
MINOT          CLOUDY    37  24  59 SW10      29.59F
MINOT AFB      CLOUDY    32  23  68 SW9       29.57F
$$

NDZ018>021-031>035-040>046-200400-
SOUTHWEST NORTH DAKOTA

CITY           SKY/WX    TMP DP  RH WIND       PRES   REMARKS
BISMARCK       CLOUDY    26  21  81 SE3       29.68F
DICKINSON      CLOUDY    34  19  54 S13       29.61F
GARRISON         N/A     29  23  78 S6        29.62F
HETTINGER ARPT CLOUDY    34  20  56 CALM      29.68F
$$

NDZ004>008-012>016-024-026-027-054-200400-
NORTHEAST NORTH DAKOTA

CITY           SKY/WX    TMP DP  RH WIND       PRES   REMARKS
GRAND FORKS    CLOUDY    18  16  92 SE3       29.71F FOG
GRND FRKS AFB  CLOUDY    16  14  93 SW3       29.70F
DEVILS LAKE    CLOUDY    23  22  96 SE7       29.66F WCI  15
$$

NDZ022-023-025-028>030-036>039-047>053-200400-
SOUTHEAST NORTH DAKOTA

CITY           SKY/WX    TMP DP  RH WIND       PRES   REMARKS
FARGO          CLOUDY    23  18  81 CALM      29.73F
JAMESTOWN      CLOUDY    28  22  78 S5        29.69F
$$




USA.gov is the U.S. government's official web portal to all federal, state and local government web resources and services.